This demonstration page uses our WeatherBlox Daily Observations layout. Learn more.

Left ArrowRight Arrow

Hourly Observations for June 14, 2016

Temp ( °F °C ) Dew Point ( °F °C ) Humidity (%) Winds ( mph kmh ) Pressure ( in mb ) Visibility ( mi km ) Precip ( " mm )
12:51 am 00:51 Clear 73 22.8 27 -2.8 18 18 NW 12 19 29.78 1008 10 16 0.00 0.00
1:51 am 01:51 Clear 74 23.3 25 -3.9 16 16 NNW 15 24 29.77 1008 10 16 0.00 0.00
2:51 am 02:51 Clear 73 22.8 24 -4.4 16 16 NNW 12 19 29.77 1008 10 16 0.00 0.00
3:51 am 03:51 Clear 73 22.8 24 -4.4 16 16 Calm 29.78 1009 10 16 0.00 0.00
4:51 am 04:51 Clear 62 16.7 29 -1.7 29 29 E 6 9 29.82 1010 10 16 0.00 0.00
5:51 am 05:51 Sunny 65 18.3 30 -1.1 27 27 ESE 3 6 29.84 1010 10 16 0.00 0.00
6:51 am 06:51 Sunny 70 21.1 29 -1.7 22 22 SE 5 7 29.84 1011 10 16 0.00 0.00
7:51 am 07:51 Sunny 76 24.4 27 -2.8 16 16 Calm 29.85 1011 10 16 0.00 0.00
8:51 am 08:51 Sunny 80 26.7 26 -3.3 14 14 VRB 3 6 29.84 1011 10 16 0.00 0.00
9:51 am 09:51 Sunny 85 29.4 25 -3.9 11 11 VRB 5 7 29.83 1010 10 16 0.00 0.00
10:51 am 10:51 Sunny 88 31.1 31 -0.6 13 13 SSW 9 15 29.82 1010 10 16 0.00 0.00
11:51 am 11:51 Sunny 90 32.2 28 -2.2 11 11 Calm 29.79 1009 10 16 0.00 0.00
12:51 pm 12:51 Sunny 91 32.8 26 -3.3 9 9 Calm 29.76 1008 10 16 0.00 0.00
1:51 pm 13:51 Sunny 93 33.9 24 -4.4 8 8 SSE 6 9 29.72 1007 10 16 0.00 0.00
2:51 pm 14:51 Sunny 96 35.6 24 -4.4 7 7 VRB 6 9 29.70 1006 10 16 0.00 0.00
3:51 pm 15:51 Sunny 97 36.1 24 -4.4 7 7 Calm 29.67 1005 10 16 0.00 0.00
4:51 pm 16:51 Sunny 97 36.1 22 -5.6 7 7 NW 10 17 29.67 1005 10 16 0.00 0.00
5:51 pm 17:51 Sunny 96 35.6 23 -5 7 7 WNW 7 11 29.66 1004 10 16 0.00 0.00
6:51 pm 18:51 Sunny 94 34.4 24 -4.4 8 8 W 10 17 29.67 1005 10 16 0.00 0.00
7:51 pm 19:51 Clear 90 32.2 23 -5 9 9 WNW 12 19 29.67 1005 10 16 0.00 0.00
8:51 pm 20:51 Clear 86 30 22 -5.6 9 9 NW 15 24 29.70 1006 10 16 0.00 0.00
9:51 pm 21:51 Clear 83 28.3 21 -6.1 10 10 NW 12 19 29.71 1006 10 16 0.00 0.00
10:51 pm 22:51 Clear 76 24.4 24 -4.4 14 14 undefined N/A 29.72 1007 10 16 0.00 0.00
11:51 pm 23:51 Clear 74 23.3 21 -6.1 14 14 WNW 7 11 29.73 1007 10 16 0.00 0.00

Powered by AerisWeather